Date_Time,Julian_Date,Latitude,Longitude,Instrument_Depth,U,V,Speed,Direction
(yyyy-mm-dd hh:mn:ss UTC),(JD),(+ deg. North),(+ deg. East),(m),(cm/s),(cm/s),(cm/s),(deg True)
1980-07-17 16:00:00 UTC,2444438.166667,25.9900,-96.1517,0200,-23.52,41.82,47.9802,330.6461
1980-07-17 16:30:00 UTC,2444438.187500,25.9900,-96.1517,0200,-26.61,43.90,51.3352,328.7778
1980-07-17 17:00:00 UTC,2444438.208333,25.9900,-96.1517,0200,-22.94,44.67,50.2161,332.8175
1980-07-17 17:30:00 UTC,2444438.229167,25.9900,-96.1517,0200,-20.74,42.64,47.4164,334.0618
1980-07-17 18:00:00 UTC,2444438.250000,25.9900,-96.1517,0200,-18.27,42.70,46.4444,336.8354
1980-07-17 18:30:00 UTC,2444438.270833,25.9900,-96.1517,0200,-14.25,39.61,42.0953,340.2134
1980-07-17 19:00:00 UTC,2444438.291667,25.9900,-96.1517,0200,-13.39,33.25,35.8449,338.0650
1980-07-17 19:30:00 UTC,2444438.312500,25.9900,-96.1517,0200,-13.09,26.54,29.5926,333.7467
1980-07-17 20:00:00 UTC,2444438.333333,25.9900,-96.1517,0200,-11.44,20.34,23.3364,330.6449
1980-07-17 20:30:00 UTC,2444438.354167,25.9900,-96.1517,0200,-11.45,18.88,22.0807,328.7648
1980-07-17 21:00:00 UTC,2444438.375000,25.9900,-96.1517,0200,-10.74,16.68,19.8386,327.2231
1980-07-17 21:30:00 UTC,2444438.395833,25.9900,-96.1517,0200,-12.49,14.87,19.4195,319.9716
1980-07-17 22:00:00 UTC,2444438.416667,25.9900,-96.1517,0200,-12.67,12.61,17.8757,314.8640
1980-07-17 22:30:00 UTC,2444438.437500,25.9900,-96.1517,0200,-13.52,9.42,16.4781,304.8667
1980-07-17 23:00:00 UTC,2444438.458333,25.9900,-96.1517,0200,-15.12,8.16,17.1814,298.3550
1980-07-17 23:30:00 UTC,2444438.479167,25.9900,-96.1517,0200,-15.54,10.44,18.7212,303.8938
1980-07-18 00:00:00 UTC,2444438.500000,25.9900,-96.1517,0200,-16.79,7.62,18.4382,294.4105
1980-07-18 00:30:00 UTC,2444438.520833,25.9900,-96.1517,0200,-16.71,4.00,17.1821,283.4620
1980-07-18 01:00:00 UTC,2444438.541667,25.9900,-96.1517,0200,-18.90,3.04,19.1429,279.1376
1980-07-18 01:30:00 UTC,2444438.562500,25.9900,-96.1517,0200,-20.98,4.13,21.3826,281.1365
1980-07-18 02:00:00 UTC,2444438.583333,25.9900,-96.1517,0200,-22.49,6.23,23.3369,285.4834
1980-07-18 02:30:00 UTC,2444438.604167,25.9900,-96.1517,0200,-21.17,7.21,22.3641,288.8076
1980-07-18 03:00:00 UTC,2444438.625000,25.9900,-96.1517,0200,-17.35,8.73,19.4225,296.7102
1980-07-18 03:30:00 UTC,2444438.645833,25.9900,-96.1517,0200,-18.51,7.15,19.8429,291.1204
1980-07-18 04:00:00 UTC,2444438.666667,25.9900,-96.1517,0200,-23.03,10.14,25.1635,293.7637
1980-07-18 04:30:00 UTC,2444438.687500,25.9900,-96.1517,0200,-26.61,10.63,28.6546,291.7754
1980-07-18 05:00:00 UTC,2444438.708333,25.9900,-96.1517,0200,-27.15,12.90,30.0588,295.4142
1980-07-18 05:30:00 UTC,2444438.729167,25.9900,-96.1517,0200,-27.65,11.42,29.9155,292.4416
1980-07-18 06:00:00 UTC,2444438.750000,25.9900,-96.1517,0200,-27.93,13.86,31.1799,296.3925
1980-07-18 06:30:00 UTC,2444438.770833,25.9900,-96.1517,0200,-28.28,15.89,32.4384,299.3308
1980-07-18 07:00:00 UTC,2444438.791667,25.9900,-96.1517,0200,-27.53,17.17,32.4455,301.9511
1980-07-18 07:30:00 UTC,2444438.812500,25.9900,-96.1517,0200,-23.19,17.78,29.2216,307.4777
1980-07-18 08:00:00 UTC,2444438.833333,25.9900,-96.1517,0200,-23.11,18.56,29.6403,308.7685
1980-07-18 08:30:00 UTC,2444438.854167,25.9900,-96.1517,0200,-24.59,15.53,29.0835,302.2748
1980-07-18 09:00:00 UTC,2444438.875000,25.9900,-96.1517,0200,-24.85,15.11,29.0832,301.3016
1980-07-18 09:30:00 UTC,2444438.895833,25.9900,-96.1517,0200,-25.29,20.54,32.5803,309.0828
1980-07-18 10:00:00 UTC,2444438.916667,25.9900,-96.1517,0200,-23.28,20.95,31.3187,311.9845
1980-07-18 10:30:00 UTC,2444438.937500,25.9900,-96.1517,0200,-21.22,22.08,30.6238,316.1378
1980-07-18 11:00:00 UTC,2444438.958333,25.9900,-96.1517,0200,-20.87,21.24,29.7774,315.5034
1980-07-18 11:30:00 UTC,2444438.979167,25.9900,-96.1517,0200,-20.81,22.65,30.7584,317.4243
1980-07-18 12:00:00 UTC,2444439.000000,25.9900,-96.1517,0200,-20.09,25.29,32.2985,321.5369
1980-07-18 12:30:00 UTC,2444439.020833,25.9900,-96.1517,0200,-19.30,23.23,30.2014,320.2794
1980-07-18 13:00:00 UTC,2444439.041667,25.9900,-96.1517,0200,-16.03,24.59,29.3535,326.9000
1980-07-18 13:30:00 UTC,2444439.062500,25.9900,-96.1517,0200,-11.18,25.01,27.3951,335.9143
1980-07-18 14:00:00 UTC,2444439.083333,25.9900,-96.1517,0200,-9.54,25.24,26.9828,339.2948
1980-07-18 14:30:00 UTC,2444439.104167,25.9900,-96.1517,0200,-7.12,26.17,27.1213,344.7801
1980-07-18 15:00:00 UTC,2444439.125000,25.9900,-96.1517,0200,-1.63,24.27,24.3247,356.1577
1980-07-18 15:30:00 UTC,2444439.145833,25.9900,-96.1517,0200,1.63,21.88,21.9406,4.2605
1980-07-18 16:00:00 UTC,2444439.166667,25.9900,-96.1517,0200,2.47,19.54,19.6955,7.2044
1980-07-18 16:30:00 UTC,2444439.187500,25.9900,-96.1517,0200,2.85,17.65,17.8786,9.1726
1980-07-18 17:00:00 UTC,2444439.208333,25.9900,-96.1517,0200,6.51,15.29,16.6182,23.0628
1980-07-18 17:30:00 UTC,2444439.229167,25.9900,-96.1517,0200,6.38,11.62,13.2563,28.7691
1980-07-18 18:00:00 UTC,2444439.250000,25.9900,-96.1517,0200,7.37,9.47,11.9999,37.8917
1980-07-18 18:30:00 UTC,2444439.270833,25.9900,-96.1517,0200,8.24,7.94,11.4430,46.0622
1980-07-18 19:00:00 UTC,2444439.291667,25.9900,-96.1517,0200,5.68,5.74,8.0753,44.6990
1980-07-18 19:30:00 UTC,2444439.312500,25.9900,-96.1517,0200,6.96,4.63,8.3593,56.3670
1980-07-18 20:00:00 UTC,2444439.333333,25.9900,-96.1517,0200,7.47,0.90,7.5240,83.1300
1980-07-18 20:30:00 UTC,2444439.354167,25.9900,-96.1517,0200,4.02,0.18,4.0240,87.4362
1980-07-18 21:00:00 UTC,2444439.375000,25.9900,-96.1517,0200,2.43,0.99,2.6239,67.8336
1980-07-18 21:30:00 UTC,2444439.395833,25.9900,-96.1517,0200,3.43,1.09,3.5990,72.3706
1980-07-18 22:00:00 UTC,2444439.416667,25.9900,-96.1517,0200,-0.87,1.87,2.0625,335.0502
1980-07-18 22:30:00 UTC,2444439.437500,25.9900,-96.1517,0200,-1.00,1.64,1.9208,328.6270
1980-07-18 23:00:00 UTC,2444439.458333,25.9900,-96.1517,0200,-0.10,1.92,1.9226,357.0185
1980-07-18 23:30:00 UTC,2444439.479167,25.9900,-96.1517,0200,-0.02,4.30,4.3000,359.7335
1980-07-19 00:00:00 UTC,2444439.500000,25.9900,-96.1517,0200,1.48,6.51,6.6761,12.8081
1980-07-19 00:30:00 UTC,2444439.520833,25.9900,-96.1517,0200,3.13,6.99,7.6588,24.1220
1980-07-19 01:00:00 UTC,2444439.541667,25.9900,-96.1517,0200,4.02,7.96,8.9175,26.7949
1980-07-19 01:30:00 UTC,2444439.562500,25.9900,-96.1517,0200,2.94,10.91,11.2992,15.0817
1980-07-19 02:00:00 UTC,2444439.583333,25.9900,-96.1517,0200,5.55,14.92,15.9188,20.4044
1980-07-19 02:30:00 UTC,2444439.604167,25.9900,-96.1517,0200,8.30,16.47,18.4432,26.7457
1980-07-19 03:00:00 UTC,2444439.625000,25.9900,-96.1517,0200,6.63,17.51,18.7232,20.7387
1980-07-19 03:30:00 UTC,2444439.645833,25.9900,-96.1517,0200,4.81,22.41,22.9204,12.1140
1980-07-19 04:00:00 UTC,2444439.666667,25.9900,-96.1517,0200,7.28,26.99,27.9546,15.0951
1980-07-19 04:30:00 UTC,2444439.687500,25.9900,-96.1517,0200,8.42,27.98,29.2195,16.7481
1980-07-19 05:00:00 UTC,2444439.708333,25.9900,-96.1517,0200,10.70,28.24,30.1991,20.7515
1980-07-19 05:30:00 UTC,2444439.729167,25.9900,-96.1517,0200,13.81,26.23,29.6434,27.7666
1980-07-19 06:00:00 UTC,2444439.750000,25.9900,-96.1517,0200,15.02,23.91,28.2363,32.1366
1980-07-19 06:30:00 UTC,2444439.770833,25.9900,-96.1517,0200,12.71,22.52,25.8591,29.4398
1980-07-19 07:00:00 UTC,2444439.791667,25.9900,-96.1517,0200,11.92,22.32,25.3035,28.1045
1980-07-19 07:30:00 UTC,2444439.812500,25.9900,-96.1517,0200,11.96,23.72,26.5646,26.7580
1980-07-19 08:00:00 UTC,2444439.833333,25.9900,-96.1517,0200,15.17,24.15,28.5193,32.1353
1980-07-19 08:30:00 UTC,2444439.854167,25.9900,-96.1517,0200,14.73,21.43,26.0042,34.5028
1980-07-19 09:00:00 UTC,2444439.875000,25.9900,-96.1517,0200,14.65,22.15,26.5564,33.4806
1980-07-19 09:30:00 UTC,2444439.895833,25.9900,-96.1517,0200,15.27,23.09,27.6825,33.4777
1980-07-19 10:00:00 UTC,2444439.916667,25.9900,-96.1517,0200,19.33,23.38,30.3360,39.5831
1980-07-19 10:30:00 UTC,2444439.937500,25.9900,-96.1517,0200,18.83,25.73,31.8842,36.1978
1980-07-19 11:00:00 UTC,2444439.958333,25.9900,-96.1517,0200,17.80,25.26,30.9016,35.1713
1980-07-19 11:30:00 UTC,2444439.979167,25.9900,-96.1517,0200,19.23,23.83,30.6213,38.9023
1980-07-19 12:00:00 UTC,2444440.000000,25.9900,-96.1517,0200,18.75,22.41,29.2194,39.9185
1980-07-19 12:30:00 UTC,2444440.020833,25.9900,-96.1517,0200,18.60,23.61,30.0565,38.2311
1980-07-19 13:00:00 UTC,2444440.041667,25.9900,-96.1517,0200,21.59,20.31,29.6416,46.7498
1980-07-19 13:30:00 UTC,2444440.062500,25.9900,-96.1517,0200,20.82,20.30,29.0786,45.7245
1980-07-19 14:00:00 UTC,2444440.083333,25.9900,-96.1517,0200,21.70,22.20,31.0440,44.3475
1980-07-19 14:30:00 UTC,2444440.104167,25.9900,-96.1517,0200,25.77,19.00,32.0171,53.5990
1980-07-19 15:00:00 UTC,2444440.125000,25.9900,-96.1517,0200,20.64,19.89,28.6639,46.0601
1980-07-19 15:30:00 UTC,2444440.145833,25.9900,-96.1517,0200,19.16,22.62,29.6441,40.2659
1980-07-19 16:00:00 UTC,2444440.166667,25.9900,-96.1517,0200,21.47,17.91,27.9594,50.1656
1980-07-19 16:30:00 UTC,2444440.187500,25.9900,-96.1517,0200,19.32,14.07,23.9004,53.9356
1980-07-19 17:00:00 UTC,2444440.208333,25.9900,-96.1517,0200,18.46,12.61,22.3558,55.6631
1980-07-19 17:30:00 UTC,2444440.229167,25.9900,-96.1517,0200,18.93,12.93,22.9244,55.6652
1980-07-19 18:00:00 UTC,2444440.250000,25.9900,-96.1517,0200,18.19,13.24,22.4983,53.9502
1980-07-19 18:30:00 UTC,2444440.270833,25.9900,-96.1517,0200,17.51,12.75,21.6602,53.9396
1980-07-19 19:00:00 UTC,2444440.291667,25.9900,-96.1517,0200,16.87,12.44,20.9607,53.5948
1980-07-19 19:30:00 UTC,2444440.312500,25.9900,-96.1517,0200,14.73,10.86,18.3006,53.5997
1980-07-19 20:00:00 UTC,2444440.333333,25.9900,-96.1517,0200,16.97,10.01,19.7023,59.4652
1980-07-19 20:30:00 UTC,2444440.354167,25.9900,-96.1517,0200,17.69,10.15,20.3951,60.1541
1980-07-19 21:00:00 UTC,2444440.375000,25.9900,-96.1517,0200,19.41,10.52,22.0776,61.5428
1980-07-19 21:30:00 UTC,2444440.395833,25.9900,-96.1517,0200,19.39,11.13,22.3573,60.1439
1980-07-19 22:00:00 UTC,2444440.416667,25.9900,-96.1517,0200,17.79,11.08,20.9583,58.0844
1980-07-19 22:30:00 UTC,2444440.437500,25.9900,-96.1517,0200,15.48,13.07,20.2597,49.8251
1980-07-19 23:00:00 UTC,2444440.458333,25.9900,-96.1517,0200,15.09,14.54,20.9552,46.0634
1980-07-19 23:30:00 UTC,2444440.479167,25.9900,-96.1517,0200,14.48,16.11,21.6611,41.9499
1980-07-20 00:00:00 UTC,2444440.500000,25.9900,-96.1517,0200,11.86,18.63,22.0848,32.4811
1980-07-20 00:30:00 UTC,2444440.520833,25.9900,-96.1517,0200,11.52,18.34,21.6579,32.1344
1980-07-20 01:00:00 UTC,2444440.541667,25.9900,-96.1517,0200,11.89,18.93,22.3544,32.1331
1980-07-20 01:30:00 UTC,2444440.562500,25.9900,-96.1517,0200,12.29,18.34,22.0771,33.8268
1980-07-20 02:00:00 UTC,2444440.583333,25.9900,-96.1517,0200,12.48,16.84,20.9603,36.5419
1980-07-20 02:30:00 UTC,2444440.604167,25.9900,-96.1517,0200,11.59,17.30,20.8235,33.8198
1980-07-20 03:00:00 UTC,2444440.625000,25.9900,-96.1517,0200,11.98,17.88,21.5224,33.8230
1980-07-20 03:30:00 UTC,2444440.645833,25.9900,-96.1517,0200,13.61,19.31,23.6243,35.1768
1980-07-20 04:00:00 UTC,2444440.666667,25.9900,-96.1517,0200,15.09,21.68,26.4146,34.8392
1980-07-20 04:30:00 UTC,2444440.687500,25.9900,-96.1517,0200,14.89,22.50,26.9808,33.4957
1980-07-20 05:00:00 UTC,2444440.708333,25.9900,-96.1517,0200,13.68,23.90,27.5382,29.7862
1980-07-20 05:30:00 UTC,2444440.729167,25.9900,-96.1517,0200,12.73,24.89,27.9565,27.0875
1980-07-20 06:00:00 UTC,2444440.750000,25.9900,-96.1517,0200,13.50,27.17,30.3391,26.4215
1980-07-20 06:30:00 UTC,2444440.770833,25.9900,-96.1517,0200,14.16,31.20,34.2629,24.4107
1980-07-20 07:00:00 UTC,2444440.791667,25.9900,-96.1517,0200,12.83,34.47,36.7803,20.4157
1980-07-20 07:30:00 UTC,2444440.812500,25.9900,-96.1517,0200,14.75,37.63,40.4176,21.4039
1980-07-20 08:00:00 UTC,2444440.833333,25.9900,-96.1517,0200,12.62,39.43,41.4004,17.7478
1980-07-20 08:30:00 UTC,2444440.854167,25.9900,-96.1517,0200,15.21,40.16,42.9438,20.7434
1980-07-20 09:00:00 UTC,2444440.875000,25.9900,-96.1517,0200,15.84,37.79,40.9755,22.7414
1980-07-20 09:30:00 UTC,2444440.895833,25.9900,-96.1517,0200,18.02,36.81,40.9841,26.0836
1980-07-20 10:00:00 UTC,2444440.916667,25.9900,-96.1517,0200,23.64,31.92,39.7207,36.5237
1980-07-20 10:30:00 UTC,2444440.937500,25.9900,-96.1517,0200,18.65,33.96,38.7441,28.7745
1980-07-20 11:00:00 UTC,2444440.958333,25.9900,-96.1517,0200,20.50,32.21,38.1803,32.4746
1980-07-20 11:30:00 UTC,2444440.979167,25.9900,-96.1517,0200,21.81,29.44,36.6386,36.5321
1980-07-20 12:00:00 UTC,2444441.000000,25.9900,-96.1517,0200,20.69,29.73,36.2208,34.8352
1980-07-20 12:30:00 UTC,2444441.020833,25.9900,-96.1517,0200,21.98,27.90,35.5180,38.2315
1980-07-20 13:00:00 UTC,2444441.041667,25.9900,-96.1517,0200,22.76,29.25,37.0618,37.8872
1980-07-20 13:30:00 UTC,2444441.062500,25.9900,-96.1517,0200,23.28,25.89,34.8174,41.9615
1980-07-20 14:00:00 UTC,2444441.083333,25.9900,-96.1517,0200,22.91,23.16,32.5769,44.6891
1980-07-20 14:30:00 UTC,2444441.104167,25.9900,-96.1517,0200,22.62,22.86,32.1597,44.6976
1980-07-20 15:00:00 UTC,2444441.125000,25.9900,-96.1517,0200,22.35,21.54,31.0402,46.0573
1980-07-20 15:30:00 UTC,2444441.145833,25.9900,-96.1517,0200,21.99,21.71,30.9012,45.3671
1980-07-20 16:00:00 UTC,2444441.166667,25.9900,-96.1517,0200,18.62,22.52,29.2208,39.5846
1980-07-20 16:30:00 UTC,2444441.187500,25.9900,-96.1517,0200,16.77,20.78,26.7028,38.9044
1980-07-20 17:00:00 UTC,2444441.208333,25.9900,-96.1517,0200,18.44,20.26,27.3953,42.3075
1980-07-20 17:30:00 UTC,2444441.229167,25.9900,-96.1517,0200,15.44,21.10,26.1458,36.1949
1980-07-20 18:00:00 UTC,2444441.250000,25.9900,-96.1517,0200,11.63,20.88,23.9004,29.1175
1980-07-20 18:30:00 UTC,2444441.270833,25.9900,-96.1517,0200,10.41,17.71,20.5429,30.4472
1980-07-20 19:00:00 UTC,2444441.291667,25.9900,-96.1517,0200,9.18,16.95,19.2763,28.4397
1980-07-20 19:30:00 UTC,2444441.312500,25.9900,-96.1517,0200,11.48,16.70,20.2652,34.5056
1980-07-20 20:00:00 UTC,2444441.333333,25.9900,-96.1517,0200,12.11,20.60,23.8959,30.4497
1980-07-20 20:30:00 UTC,2444441.354167,25.9900,-96.1517,0200,8.26,23.02,24.4571,19.7389
1980-07-20 21:00:00 UTC,2444441.375000,25.9900,-96.1517,0200,10.57,21.59,24.0386,26.0854
1980-07-20 21:30:00 UTC,2444441.395833,25.9900,-96.1517,0200,10.56,20.34,22.9179,27.4372
1980-07-20 22:00:00 UTC,2444441.416667,25.9900,-96.1517,0200,10.39,20.90,23.3401,26.4333
1980-07-20 22:30:00 UTC,2444441.437500,25.9900,-96.1517,0200,9.24,22.04,23.8985,22.7453
1980-07-20 23:00:00 UTC,2444441.458333,25.9900,-96.1517,0200,10.80,20.22,22.9235,28.1078
1980-07-20 23:30:00 UTC,2444441.479167,25.9900,-96.1517,0200,11.50,20.95,23.8988,28.7635
1980-07-21 00:00:00 UTC,2444441.500000,25.9900,-96.1517,0200,9.12,20.72,22.6383,23.7569
1980-07-21 00:30:00 UTC,2444441.520833,25.9900,-96.1517,0200,8.60,18.65,20.5373,24.7557
1980-07-21 01:00:00 UTC,2444441.541667,25.9900,-96.1517,0200,7.66,16.62,18.3003,24.7445
1980-07-21 01:30:00 UTC,2444441.562500,25.9900,-96.1517,0200,9.61,18.00,20.4047,28.0973
1980-07-21 02:00:00 UTC,2444441.583333,25.9900,-96.1517,0200,10.04,16.62,19.4172,31.1358
1980-07-21 02:30:00 UTC,2444441.604167,25.9900,-96.1517,0200,8.99,15.29,17.7371,30.4541
1980-07-21 03:00:00 UTC,2444441.625000,25.9900,-96.1517,0200,9.06,15.41,17.8760,30.4525
1980-07-21 03:30:00 UTC,2444441.645833,25.9900,-96.1517,0200,4.94,17.91,18.5788,15.4201
1980-07-21 04:00:00 UTC,2444441.666667,25.9900,-96.1517,0200,5.57,18.90,19.7037,16.4207
1980-07-21 04:30:00 UTC,2444441.687500,25.9900,-96.1517,0200,5.72,19.00,19.8423,16.7546
1980-07-21 05:00:00 UTC,2444441.708333,25.9900,-96.1517,0200,3.31,21.26,21.5161,8.8494
1980-07-21 05:30:00 UTC,2444441.729167,25.9900,-96.1517,0200,2.07,21.28,21.3804,5.5559
1980-07-21 06:00:00 UTC,2444441.750000,25.9900,-96.1517,0200,1.46,21.19,21.2402,3.9415
1980-07-21 06:30:00 UTC,2444441.770833,25.9900,-96.1517,0200,0.39,22.08,22.0834,1.0119
1980-07-21 07:00:00 UTC,2444441.791667,25.9900,-96.1517,0200,0.95,20.66,20.6818,2.6328
1980-07-21 07:30:00 UTC,2444441.812500,25.9900,-96.1517,0200,0.98,18.97,18.9953,2.9573
1980-07-21 08:00:00 UTC,2444441.833333,25.9900,-96.1517,0200,2.36,19.56,19.7019,6.8797
1980-07-21 08:30:00 UTC,2444441.854167,25.9900,-96.1517,0200,3.14,21.01,21.2433,8.5001
1980-07-21 09:00:00 UTC,2444441.875000,25.9900,-96.1517,0200,1.00,24.86,24.8801,2.3035
1980-07-21 09:30:00 UTC,2444441.895833,25.9900,-96.1517,0200,4.12,25.53,25.8603,9.1673
1980-07-21 10:00:00 UTC,2444441.916667,25.9900,-96.1517,0200,3.56,28.16,28.3841,7.2051
1980-07-21 10:30:00 UTC,2444441.937500,25.9900,-96.1517,0200,3.89,30.80,31.0447,7.1983
1980-07-21 11:00:00 UTC,2444441.958333,25.9900,-96.1517,0200,1.33,32.97,32.9968,2.3100
1980-07-21 11:30:00 UTC,2444441.979167,25.9900,-96.1517,0200,1.91,33.37,33.4246,3.2759
1980-07-21 12:00:00 UTC,2444442.000000,25.9900,-96.1517,0200,0.22,36.36,36.3607,0.3467
1980-07-21 12:30:00 UTC,2444442.020833,25.9900,-96.1517,0200,2.04,35.60,35.6584,3.2797
1980-07-21 13:00:00 UTC,2444442.041667,25.9900,-96.1517,0200,2.36,34.32,34.4010,3.9337
1980-07-21 13:30:00 UTC,2444442.062500,25.9900,-96.1517,0200,2.55,34.31,34.4046,4.2505
1980-07-21 14:00:00 UTC,2444442.083333,25.9900,-96.1517,0200,2.61,35.00,35.0972,4.2647
1980-07-21 14:30:00 UTC,2444442.104167,25.9900,-96.1517,0200,2.21,35.03,35.0996,3.6099
1980-07-21 15:00:00 UTC,2444442.125000,25.9900,-96.1517,0200,0.21,34.40,34.4006,0.3498
1980-07-21 15:30:00 UTC,2444442.145833,25.9900,-96.1517,0200,2.11,33.49,33.5564,3.6051
1980-07-21 16:00:00 UTC,2444442.166667,25.9900,-96.1517,0200,1.44,31.29,31.3231,2.6350
1980-07-21 16:30:00 UTC,2444442.187500,25.9900,-96.1517,0200,-0.33,30.20,30.2018,359.3739
1980-07-21 17:00:00 UTC,2444442.208333,25.9900,-96.1517,0200,0.51,29.36,29.3644,0.9952
1980-07-21 17:30:00 UTC,2444442.229167,25.9900,-96.1517,0200,2.58,32.20,32.3032,4.5810
1980-07-21 18:00:00 UTC,2444442.250000,25.9900,-96.1517,0200,3.73,32.51,32.7233,6.5452
1980-07-21 18:30:00 UTC,2444442.270833,25.9900,-96.1517,0200,3.19,29.33,29.5030,6.2072
1980-07-21 19:00:00 UTC,2444442.291667,25.9900,-96.1517,0200,1.70,29.73,29.7786,3.2727
1980-07-21 19:30:00 UTC,2444442.312500,25.9900,-96.1517,0200,2.33,31.23,31.3168,4.2668
1980-07-21 20:00:00 UTC,2444442.333333,25.9900,-96.1517,0200,0.18,29.08,29.0806,0.3546
1980-07-21 20:30:00 UTC,2444442.354167,25.9900,-96.1517,0200,0.68,29.49,29.4978,1.3209
1980-07-21 21:00:00 UTC,2444442.375000,25.9900,-96.1517,0200,0.71,30.47,30.4783,1.3348
1980-07-21 21:30:00 UTC,2444442.395833,25.9900,-96.1517,0200,0.21,33.84,33.8407,0.3556
1980-07-21 22:00:00 UTC,2444442.416667,25.9900,-96.1517,0200,1.85,32.25,32.3030,3.2831
1980-07-21 22:30:00 UTC,2444442.437500,25.9900,-96.1517,0200,0.88,37.89,37.9002,1.3305
1980-07-21 23:00:00 UTC,2444442.458333,25.9900,-96.1517,0200,1.42,41.10,41.1245,1.9788
1980-07-21 23:30:00 UTC,2444442.479167,25.9900,-96.1517,0200,2.59,41.04,41.1216,3.6111
1980-07-22 00:00:00 UTC,2444442.500000,25.9900,-96.1517,0200,2.23,43.30,43.3574,2.9482
1980-07-22 00:30:00 UTC,2444442.520833,25.9900,-96.1517,0200,0.02,43.08,43.0800,0.0266
1980-07-22 01:00:00 UTC,2444442.541667,25.9900,-96.1517,0200,-0.23,43.78,43.7806,359.6990
1980-07-22 01:30:00 UTC,2444442.562500,25.9900,-96.1517,0200,-2.74,44.40,44.4845,356.4687
1980-07-22 02:00:00 UTC,2444442.583333,25.9900,-96.1517,0200,0.02,44.62,44.6200,0.0257
1980-07-22 02:30:00 UTC,2444442.604167,25.9900,-96.1517,0200,-0.77,46.57,46.5764,359.0527
1980-07-22 03:00:00 UTC,2444442.625000,25.9900,-96.1517,0200,4.06,47.25,47.4241,4.9111
1980-07-22 03:30:00 UTC,2444442.645833,25.9900,-96.1517,0200,2.21,48.07,48.1208,2.6323
1980-07-22 04:00:00 UTC,2444442.666667,25.9900,-96.1517,0200,3.79,50.92,51.0608,4.2567
1980-07-22 04:30:00 UTC,2444442.687500,25.9900,-96.1517,0200,3.00,52.37,52.4559,3.2786
1980-07-22 05:00:00 UTC,2444442.708333,25.9900,-96.1517,0200,5.06,51.93,52.1759,5.5653
1980-07-22 05:30:00 UTC,2444442.729167,25.9900,-96.1517,0200,4.89,53.36,53.5836,5.2361
1980-07-22 06:00:00 UTC,2444442.750000,25.9900,-96.1517,0200,4.27,53.27,53.4409,4.5829
1980-07-22 06:30:00 UTC,2444442.770833,25.9900,-96.1517,0200,8.09,58.62,59.1756,7.8576
1980-07-22 07:00:00 UTC,2444442.791667,25.9900,-96.1517,0200,4.29,62.39,62.5373,3.9335
1980-07-22 07:30:00 UTC,2444442.812500,25.9900,-96.1517,0200,6.36,65.31,65.6189,5.5620
1980-07-22 08:00:00 UTC,2444442.833333,25.9900,-96.1517,0200,9.94,66.42,67.1597,8.5114
1980-07-22 08:30:00 UTC,2444442.854167,25.9900,-96.1517,0200,9.46,63.24,63.9436,8.5077
1980-07-22 09:00:00 UTC,2444442.875000,25.9900,-96.1517,0200,6.86,66.53,66.8827,5.8870
1980-07-22 09:30:00 UTC,2444442.895833,25.9900,-96.1517,0200,5.82,67.75,67.9995,4.9099
1980-07-22 10:00:00 UTC,2444442.916667,25.9900,-96.1517,0200,17.02,71.17,73.1768,13.4494
1980-07-22 10:30:00 UTC,2444442.937500,25.9900,-96.1517,0200,5.98,74.62,74.8592,4.5819
1980-07-22 11:00:00 UTC,2444442.958333,25.9900,-96.1517,0200,7.12,73.11,73.4559,5.5624
1980-07-22 11:30:00 UTC,2444442.979167,25.9900,-96.1517,0200,9.36,74.13,74.7186,7.1964
1980-07-22 12:00:00 UTC,2444443.000000,25.9900,-96.1517,0200,7.28,70.57,70.9445,5.8898
1980-07-22 12:30:00 UTC,2444443.020833,25.9900,-96.1517,0200,7.18,69.59,69.9594,5.8907
1980-07-22 13:00:00 UTC,2444443.041667,25.9900,-96.1517,0200,4.40,69.82,69.9585,3.6060
1980-07-22 13:30:00 UTC,2444443.062500,25.9900,-96.1517,0200,3.63,70.29,70.3837,2.9563
1980-07-22 14:00:00 UTC,2444443.083333,25.9900,-96.1517,0200,4.32,68.56,68.6960,3.6055
1980-07-22 14:30:00 UTC,2444443.104167,25.9900,-96.1517,0200,0.42,68.00,68.0013,0.3539
1980-07-22 15:00:00 UTC,2444443.125000,25.9900,-96.1517,0200,-1.45,65.74,65.7560,358.7365
1980-07-22 15:30:00 UTC,2444443.145833,25.9900,-96.1517,0200,1.94,67.41,67.4379,1.6485
1980-07-22 16:00:00 UTC,2444443.166667,25.9900,-96.1517,0200,-3.80,67.89,67.9963,356.7963
1980-07-22 16:30:00 UTC,2444443.187500,25.9900,-96.1517,0200,-4.77,65.45,65.6236,355.8317
1980-07-22 17:00:00 UTC,2444443.208333,25.9900,-96.1517,0200,-16.57,60.88,63.0947,344.7744
1980-07-22 17:30:00 UTC,2444443.229167,25.9900,-96.1517,0200,-4.80,61.09,61.2783,355.5074
1980-07-22 18:00:00 UTC,2444443.250000,25.9900,-96.1517,0200,-19.56,59.26,62.4047,341.7335
1980-07-22 18:30:00 UTC,2444443.270833,25.9900,-96.1517,0200,-16.68,61.29,63.5192,344.7757
1980-07-22 19:00:00 UTC,2444443.291667,25.9900,-96.1517,0200,-17.01,62.51,64.7830,344.7775
1980-07-22 19:30:00 UTC,2444443.312500,25.9900,-96.1517,0200,-16.39,60.21,62.4009,344.7723
1980-07-22 20:00:00 UTC,2444443.333333,25.9900,-96.1517,0200,-4.74,60.25,60.4362,355.5017
1980-07-22 20:30:00 UTC,2444443.354167,25.9900,-96.1517,0200,-4.06,55.67,55.8178,355.8288
1980-07-22 21:00:00 UTC,2444443.375000,25.9900,-96.1517,0200,-12.86,47.24,48.9591,344.7716
1980-07-22 21:30:00 UTC,2444443.395833,25.9900,-96.1517,0200,-3.24,48.15,48.2589,356.1504
1980-07-22 22:00:00 UTC,2444443.416667,25.9900,-96.1517,0200,-1.55,46.41,46.4359,358.0872
1980-07-22 22:30:00 UTC,2444443.437500,25.9900,-96.1517,0200,-3.40,46.60,46.7239,355.8270
1980-07-22 23:00:00 UTC,2444443.458333,25.9900,-96.1517,0200,-3.40,46.60,46.7239,355.8270
1980-07-22 23:30:00 UTC,2444443.479167,25.9900,-96.1517,0200,-3.55,48.69,48.8192,355.8299
1980-07-23 00:00:00 UTC,2444443.500000,25.9900,-96.1517,0200,-3.23,48.01,48.1185,356.1511
1980-07-23 00:30:00 UTC,2444443.520833,25.9900,-96.1517,0200,-12.38,45.49,47.1445,344.7758
1980-07-23 01:00:00 UTC,2444443.541667,25.9900,-96.1517,0200,-12.71,46.70,48.3987,344.7750
1980-07-23 01:30:00 UTC,2444443.562500,25.9900,-96.1517,0200,-12.67,46.57,48.2628,344.7803
1980-07-23 02:00:00 UTC,2444443.583333,25.9900,-96.1517,0200,-12.12,44.54,46.1596,344.7775
1980-07-23 02:30:00 UTC,2444443.604167,25.9900,-96.1517,0200,-3.11,42.69,42.8031,355.8333
1980-07-23 03:00:00 UTC,2444443.625000,25.9900,-96.1517,0200,-10.69,39.27,40.6990,344.7720
1980-07-23 03:30:00 UTC,2444443.645833,25.9900,-96.1517,0200,-14.34,37.94,40.5596,339.2952
1980-07-23 04:00:00 UTC,2444443.666667,25.9900,-96.1517,0200,-13.64,37.90,40.2798,340.2065
1980-07-23 04:30:00 UTC,2444443.687500,25.9900,-96.1517,0200,-12.09,37.98,39.8579,342.3424
1980-07-23 05:00:00 UTC,2444443.708333,25.9900,-96.1517,0200,-16.21,37.33,40.6976,336.5278
1980-07-23 05:30:00 UTC,2444443.729167,25.9900,-96.1517,0200,-18.27,38.08,42.2360,334.3693